DW1830 Weather Reports


time (UTC)temp
C
wind
direction
speed
KPH
gust
KPH
rain 1hr
cm
rain 24hr
cm
rain mn
cm
humidity
%
barometer
mb
20190525020247 13 268 0.0 16.1 0.00 0.20 0.20 60 1014.6
20190525013216 13 290 0.0 17.7 0.00 0.20 0.20 59 1014.4
20190525010246 13 246 0.0 19.3 0.00 0.20 0.20 60 1014.1
20190525003216 14 126 0.0 22.5 0.00 0.20 0.20 58 1014.0
20190525000245 14 306 12.9 20.9 0.00 0.20 0.20 61 1014.0
20190524233246 15 355 8.0 19.3 0.00 0.20 0.20 58 1013.7
20190524230245 15 256 0.0 16.1 0.00 0.20 0.20 58 1013.4
20190524223215 15 307 9.7 17.7 0.00 0.20 0.20 58 1013.4
20190524220245 15 304 0.0 17.7 0.00 0.20 0.20 61 1013.3
20190524213245 14 176 0.0 8.0 0.08 0.20 0.20 83 1013.4
20190524210244 14 246 0.0 11.3 0.08 0.20 0.20 81 1013.6
20190524203244 15 171 1.6 11.3 0.00 0.13 0.13 75 1013.7
20190524200244 13 136 4.8 12.9 0.00 0.13 0.13 82 1014.0
20190524193243 13 175 0.0 8.0 0.05 0.13 0.13 84 1014.3
20190524190243 12 216 0.0 16.1 0.05 0.13 0.13 84 1014.5
20190524183243 12 168 3.2 19.3 0.00 0.08 0.08 84 1014.6
20190524180243 12 169 3.2 19.3 0.00 0.08 0.08 86 1014.6
20190524173243 12 192 3.2 9.7 0.00 0.08 0.08 87 1015.0
20190524170243 11 174 0.0 14.5 0.00 0.08 0.08 87 1015.0
20190524163243 11 169 4.8 6.4 0.05 0.08 0.08 90 1015.0
20190524160243 11 161 0.0 9.7 0.05 0.08 0.08 89 1015.1
20190524153243 11 209 0.0 9.7 0.00 0.03 0.03 87 1015.1
20190524150243 11 165 0.0 8.0 0.00 0.03 0.03 86 1014.9
20190524143243 11 184 3.2 8.0 0.00 0.03 0.03 86 1014.9
20190524140242 11 186 3.2 8.0 0.00 0.03 0.03 86 1014.9
20190524133242 11 180 0.0 6.4 0.00 0.03 0.03 86 1015.0
20190524130242 11 257 1.6 3.2 0.03 0.03 0.03 87 1014.9
20190524123242 11 257 0.0 0.0 0.03 0.03 0.03 85 1015.0
20190524120242 11 257 0.0 0.0 0.00 0.00 0.00 85 1014.6
20190524113243 11 257 0.0 0.0 0.00 0.00 0.00 87 1014.9
20190524110243 10 257 0.0 0.0 0.00 0.00 0.00 88 1014.7
20190524103245 10 257 0.0 0.0 0.00 0.00 0.00 87 1014.6
20190524100242 10 257 0.0 0.0 0.00 0.00 0.00 87 1014.8
20190524093242 10 257 0.0 0.0 0.00 0.00 0.00 85 1014.5
20190524090242 10 257 0.0 0.0 0.00 0.00 0.00 84 1014.5
20190524083242 11 257 0.0 3.2 0.00 0.00 0.00 82 1014.5
20190524080242 11 257 0.0 0.0 0.00 0.00 0.00 82 1014.2
20190524073242 11 257 0.0 8.0 0.00 0.00 0.00 80 1013.9
20190524070242 12 19 0.0 11.3 0.00 0.00 0.00 80 1013.8
20190524063242 12 333 0.0 11.3 0.00 0.00 0.00 78 1013.7
20190524060242 13 330 6.4 14.5 0.00 0.00 0.00 75 1013.3
20190524053241 14 329 0.0 9.7 0.00 0.00 0.00 72 1012.8
20190524050241 15 346 3.2 9.7 0.00 0.00 0.00 67 1012.8
20190524043241 17 310 4.8 8.0 0.00 0.00 0.00 62 1012.2
20190524040241 18 260 0.0 16.1 0.00 0.08 0.00 55 1011.8
20190524033241 20 307 0.0 14.5 0.00 0.56 0.00 51 1011.2
20190524030240 20 325 6.4 17.7 0.00 0.56 0.00 49 1011.0